Time,TemperatureF,DewpointF,PressureIn,WindDirection,WindDirectionDegrees,WindSpeedMPH,WindSpeedGustMPH,Humidity,HourlyPrecipIn,Conditions,Clouds,dailyrainin,SoftwareType,DateUTC
2013-06-03 00:02:00,48.3,40.1,29.85,NW,322,0.0,0.0,73,0.00,,CLR,0.00,VWS V14.01,2013-06-03 04:02:00,
2013-06-03 00:07:00,48.2,40.3,29.85,NW,322,0.0,0.0,74,0.00,,CLR,0.00,VWS V14.01,2013-06-03 04:07:00,
2013-06-03 00:13:00,48.0,40.1,29.85,NW,322,0.0,0.0,74,0.00,,CLR,0.00,VWS V14.01,2013-06-03 04:13:00,
2013-06-03 00:17:00,47.9,40.4,29.85,NW,322,0.0,0.0,75,0.00,,CLR,0.00,VWS V14.01,2013-06-03 04:17:00,
2013-06-03 00:22:00,47.7,40.2,29.85,NW,322,0.0,0.0,75,0.00,,CLR,0.00,VWS V14.01,2013-06-03 04:22:00,
2013-06-03 00:27:00,47.6,40.1,29.85,NW,322,0.0,0.0,75,0.00,,CLR,0.00,VWS V14.01,2013-06-03 04:27:00,
2013-06-03 00:32:00,47.4,40.2,29.85,NW,322,0.0,0.0,76,0.00,,CLR,0.00,VWS V14.01,2013-06-03 04:32:00,
2013-06-03 00:42:00,47.3,40.1,29.85,NW,322,0.0,0.0,76,0.00,,CLR,0.00,VWS V14.01,2013-06-03 04:42:00,
2013-06-03 00:47:00,47.3,40.5,29.85,NW,322,0.0,0.0,77,0.00,,CLR,0.00,VWS V14.01,2013-06-03 04:47:00,
2013-06-03 00:52:00,47.3,40.8,29.85,NW,322,0.0,0.0,78,0.00,,CLR,0.00,VWS V14.01,2013-06-03 04:52:00,
2013-06-03 00:57:00,47.1,40.6,29.85,NW,322,0.0,0.0,78,0.00,,CLR,0.00,VWS V14.01,2013-06-03 04:57:00,
2013-06-03 01:02:00,47.0,40.8,29.85,NW,322,0.0,0.0,79,0.00,,CLR,0.00,VWS V14.01,2013-06-03 05:02:00,
2013-06-03 01:12:00,46.8,40.6,29.85,NW,322,0.0,0.0,79,0.00,,CLR,0.00,VWS V14.01,2013-06-03 05:12:00,
2013-06-03 01:17:00,46.8,40.6,29.85,NW,322,0.0,0.0,79,0.00,,CLR,0.00,VWS V14.01,2013-06-03 05:17:00,
2013-06-03 01:22:00,46.8,40.6,29.85,NW,322,0.0,0.0,79,0.00,,CLR,0.00,VWS V14.01,2013-06-03 05:22:00,
2013-06-03 01:27:00,46.7,40.5,29.85,NW,322,0.0,0.0,79,0.00,,CLR,0.00,VWS V14.01,2013-06-03 05:27:00,
2013-06-03 01:32:00,46.5,40.7,29.85,NW,322,0.0,0.0,80,0.00,,CLR,0.00,VWS V14.01,2013-06-03 05:32:00,
2013-06-03 01:37:00,46.5,40.7,29.85,NW,322,0.0,0.0,80,0.00,,CLR,0.00,VWS V14.01,2013-06-03 05:37:00,
2013-06-03 01:42:00,46.5,40.7,29.85,NW,322,0.0,0.0,80,0.00,,CLR,0.00,VWS V14.01,2013-06-03 05:42:00,
2013-06-03 01:52:00,46.4,40.9,29.85,NW,322,0.0,0.0,81,0.00,,CLR,0.00,VWS V14.01,2013-06-03 05:52:00,
2013-06-03 02:02:00,46.4,41.2,29.86,NW,322,0.0,0.0,82,0.00,,CLR,0.00,VWS V14.01,2013-06-03 06:02:00,
2013-06-03 02:12:00,46.2,41.0,29.86,WNW,295,0.0,0.0,82,0.00,,CLR,0.00,VWS V14.01,2013-06-03 06:12:00,
2013-06-03 02:22:00,46.0,41.1,29.85,NW,312,0.0,0.0,83,0.00,,CLR,0.00,VWS V14.01,2013-06-03 06:22:00,
2013-06-03 02:27:00,45.8,40.9,29.85,NW,312,0.0,0.0,83,0.00,,CLR,0.00,VWS V14.01,2013-06-03 06:27:00,
2013-06-03 02:32:00,45.8,40.9,29.86,WNW,298,0.0,0.0,83,0.00,,CLR,0.00,VWS V14.01,2013-06-03 06:32:00,
2013-06-03 02:37:00,45.8,41.2,29.86,WNW,298,0.0,0.0,84,0.00,,CLR,0.00,VWS V14.01,2013-06-03 06:37:00,
2013-06-03 02:47:00,45.7,41.2,29.86,WNW,301,0.0,0.0,84,0.00,,CLR,0.00,VWS V14.01,2013-06-03 06:47:00,
2013-06-03 02:52:00,45.7,41.2,29.86,WNW,302,0.0,0.0,84,0.00,,CLR,0.00,VWS V14.01,2013-06-03 06:52:00,
2013-06-03 03:02:00,45.5,41.0,29.85,NW,309,0.0,0.0,84,0.00,,CLR,0.00,VWS V14.01,2013-06-03 07:02:00,
2013-06-03 03:12:00,45.2,41.0,29.85,NW,311,0.0,0.0,85,0.00,,CLR,0.00,VWS V14.01,2013-06-03 07:12:00,
2013-06-03 03:17:00,45.2,41.0,29.85,NW,312,0.0,0.0,85,0.00,,CLR,0.00,VWS V14.01,2013-06-03 07:17:00,
2013-06-03 03:22:00,45.1,40.9,29.85,NW,312,0.0,0.0,85,0.00,,CLR,0.00,VWS V14.01,2013-06-03 07:22:00,
2013-06-03 03:27:00,45.1,41.2,29.85,NW,312,0.0,0.0,86,0.00,,CLR,0.00,VWS V14.01,2013-06-03 07:27:00,
2013-06-03 03:32:00,45.1,41.2,29.84,NW,312,0.0,0.0,86,0.00,,CLR,0.00,VWS V14.01,2013-06-03 07:32:00,
2013-06-03 03:42:00,44.9,41.0,29.84,NW,312,0.0,0.0,86,0.00,,CLR,0.00,VWS V14.01,2013-06-03 07:42:00,
2013-06-03 03:47:00,44.8,40.9,29.84,NW,312,0.0,0.0,86,0.00,,CLR,0.00,VWS V14.01,2013-06-03 07:47:00,
2013-06-03 03:52:00,44.8,40.9,29.84,NW,318,0.0,0.0,86,0.00,,CLR,0.00,VWS V14.01,2013-06-03 07:52:00,
2013-06-03 04:02:00,44.8,40.9,29.84,NW,318,0.0,0.0,86,0.00,,CLR,0.00,VWS V14.01,2013-06-03 08:02:00,
2013-06-03 04:12:00,44.8,41.2,29.84,NW,318,0.0,0.0,87,0.00,,CLR,0.00,VWS V14.01,2013-06-03 08:12:00,
2013-06-03 04:17:00,44.6,41.0,29.85,NW,318,0.0,0.0,87,0.00,,CLR,0.00,VWS V14.01,2013-06-03 08:17:00,
2013-06-03 04:27:00,44.6,41.0,29.85,NW,318,0.0,0.0,87,0.00,,CLR,0.00,VWS V14.01,2013-06-03 08:27:00,
2013-06-03 04:32:00,44.6,41.0,29.85,NW,318,0.0,0.0,87,0.00,,CLR,0.00,VWS V14.01,2013-06-03 08:32:00,
2013-06-03 04:37:00,44.6,41.3,29.85,NW,318,0.0,0.0,88,0.00,,CLR,0.00,VWS V14.01,2013-06-03 08:37:00,
2013-06-03 04:42:00,44.6,41.3,29.85,NW,318,0.0,0.0,88,0.00,,CLR,0.00,VWS V14.01,2013-06-03 08:42:00,
2013-06-03 04:52:00,44.3,41.0,29.85,NW,318,0.0,0.0,88,0.00,,CLR,0.00,VWS V14.01,2013-06-03 08:52:00,
2013-06-03 04:57:00,44.3,41.0,29.85,NW,318,0.0,0.0,88,0.00,,CLR,0.00,VWS V14.01,2013-06-03 08:57:00,
2013-06-03 05:02:00,44.3,41.0,29.85,NW,318,0.0,0.0,88,0.00,,CLR,0.00,VWS V14.01,2013-06-03 09:02:00,
2013-06-03 05:12:00,44.2,40.9,29.85,NW,318,0.0,0.0,88,0.00,,CLR,0.00,VWS V14.01,2013-06-03 09:12:00,
2013-06-03 05:17:00,44.1,41.1,29.85,NW,318,0.0,0.0,89,0.00,,CLR,0.00,VWS V14.01,2013-06-03 09:17:00,
2013-06-03 05:22:00,43.9,40.9,29.85,NW,318,0.0,0.0,89,0.00,,CLR,0.00,VWS V14.01,2013-06-03 09:22:00,
2013-06-03 05:27:00,43.9,40.9,29.85,NW,318,0.0,0.0,89,0.00,,CLR,0.00,VWS V14.01,2013-06-03 09:27:00,
2013-06-03 05:32:00,43.9,40.9,29.86,NW,318,0.0,0.0,89,0.00,,CLR,0.00,VWS V14.01,2013-06-03 09:32:00,
2013-06-03 05:37:00,43.8,40.8,29.86,NW,318,0.0,0.0,89,0.00,,CLR,0.00,VWS V14.01,2013-06-03 09:37:00,
2013-06-03 05:42:00,43.8,40.8,29.86,NW,318,0.0,0.0,89,0.00,,CLR,0.00,VWS V14.01,2013-06-03 09:42:00,
2013-06-03 05:47:00,43.8,40.8,29.86,NW,318,0.0,0.0,89,0.00,,CLR,0.00,VWS V14.01,2013-06-03 09:47:00,
2013-06-03 05:57:00,43.5,40.8,29.86,NW,318,0.0,0.0,90,0.00,,CLR,0.00,VWS V14.01,2013-06-03 09:57:00,
2013-06-03 06:02:00,43.5,40.8,29.86,NW,318,0.0,0.0,90,0.00,,CLR,0.00,VWS V14.01,2013-06-03 10:02:00,
2013-06-03 06:07:00,43.5,40.8,29.86,NW,318,0.0,0.0,90,0.00,,CLR,0.00,VWS V14.01,2013-06-03 10:07:00,
2013-06-03 06:12:00,43.3,40.6,29.86,NW,318,0.0,0.0,90,0.00,,CLR,0.00,VWS V14.01,2013-06-03 10:12:00,
2013-06-03 06:17:00,43.3,40.6,29.87,NW,318,0.0,0.0,90,0.00,,CLR,0.00,VWS V14.01,2013-06-03 10:17:00,
2013-06-03 06:27:00,43.3,40.6,29.87,NW,318,0.0,0.0,90,0.00,,CLR,0.00,VWS V14.01,2013-06-03 10:27:00,
2013-06-03 06:32:00,43.3,40.8,29.87,NW,318,0.0,0.0,91,0.00,,CLR,0.00,VWS V14.01,2013-06-03 10:32:00,
2013-06-03 06:37:00,43.3,40.8,29.87,NW,318,0.0,0.0,91,0.00,,CLR,0.00,VWS V14.01,2013-06-03 10:37:00,
2013-06-03 06:42:00,43.5,41.0,29.87,NW,318,0.0,0.0,91,0.00,,CLR,0.00,VWS V14.01,2013-06-03 10:42:00,
2013-06-03 06:52:00,43.9,41.5,29.88,NW,318,0.0,0.0,91,0.00,,CLR,0.00,VWS V14.01,2013-06-03 10:52:00,
2013-06-03 06:57:00,44.1,41.7,29.88,NW,318,0.0,0.0,91,0.00,,CLR,0.00,VWS V14.01,2013-06-03 10:57:00,
2013-06-03 07:02:00,44.2,41.7,29.89,NW,318,0.0,0.0,91,0.00,,CLR,0.00,VWS V14.01,2013-06-03 11:02:00,
2013-06-03 07:07:00,44.6,42.1,29.89,NW,319,0.0,0.0,91,0.00,,CLR,0.00,VWS V14.01,2013-06-03 11:07:00,
2013-06-03 07:12:00,45.1,42.6,29.89,North,359,0.0,0.0,91,0.00,,CLR,0.00,VWS V14.01,2013-06-03 11:12:00,
2013-06-03 07:17:00,45.2,42.7,29.89,NNE,21,0.0,0.0,91,0.00,,CLR,0.00,VWS V14.01,2013-06-03 11:17:00,
2013-06-03 07:27:00,45.4,42.6,29.89,NE,35,0.0,0.0,90,0.00,,CLR,0.00,VWS V14.01,2013-06-03 11:27:00,
2013-06-03 07:32:00,45.8,43.0,29.89,NE,41,0.0,0.0,90,0.00,,CLR,0.00,VWS V14.01,2013-06-03 11:32:00,
2013-06-03 07:37:00,45.8,43.0,29.89,NE,45,0.0,0.0,90,0.00,,CLR,0.00,VWS V14.01,2013-06-03 11:37:00,
2013-06-03 07:42:00,46.1,43.0,29.89,NE,40,0.0,0.0,89,0.00,,CLR,0.00,VWS V14.01,2013-06-03 11:42:00,
2013-06-03 07:47:00,46.4,43.3,29.90,NE,41,0.0,0.0,89,0.00,,CLR,0.00,VWS V14.01,2013-06-03 11:47:00,
2013-06-03 07:52:00,47.0,43.9,29.90,NE,41,0.0,0.0,89,0.00,,CLR,0.00,VWS V14.01,2013-06-03 11:52:00,
2013-06-03 07:57:00,47.9,44.8,29.90,NE,45,0.0,0.0,89,0.00,,CLR,0.00,VWS V14.01,2013-06-03 11:57:00,
2013-06-03 08:02:00,48.2,44.8,29.89,ENE,65,0.0,0.0,88,0.00,,CLR,0.00,VWS V14.01,2013-06-03 12:02:00,
2013-06-03 08:12:00,48.9,44.9,29.89,ENE,64,0.0,0.0,86,0.00,,CLR,0.00,VWS V14.01,2013-06-03 12:12:00,
2013-06-03 08:22:00,49.2,44.6,29.90,ENE,62,0.0,0.0,84,0.00,,CLR,0.00,VWS V14.01,2013-06-03 12:22:00,
2013-06-03 08:27:00,49.6,45.0,29.90,ENE,62,0.0,0.0,84,0.00,,CLR,0.00,VWS V14.01,2013-06-03 12:27:00,
2013-06-03 08:32:00,50.5,44.9,29.90,ENE,64,0.0,0.0,81,0.00,,CLR,0.00,VWS V14.01,2013-06-03 12:32:00,
2013-06-03 08:37:00,51.3,45.3,29.90,ENE,69,0.0,0.0,80,0.00,,CLR,0.00,VWS V14.01,2013-06-03 12:37:00,
2013-06-03 08:42:00,51.6,45.0,29.90,ENE,71,0.0,0.0,78,0.00,,CLR,0.00,VWS V14.01,2013-06-03 12:42:00,
2013-06-03 08:47:00,52.2,44.9,29.90,ENE,66,0.0,0.0,76,0.00,,CLR,0.00,VWS V14.01,2013-06-03 12:47:00,
2013-06-03 08:52:00,52.5,44.5,29.90,ENE,72,0.0,0.0,74,0.00,,CLR,0.00,VWS V14.01,2013-06-03 12:52:00,
2013-06-03 08:57:00,51.9,43.5,29.90,ENE,65,0.0,0.0,73,0.00,,CLR,0.00,VWS V14.01,2013-06-03 12:57:00,
2013-06-03 09:02:00,52.0,43.6,29.90,ENE,61,0.0,0.0,73,0.00,,CLR,0.00,VWS V14.01,2013-06-03 13:02:00,
2013-06-03 09:12:00,54.1,44.5,29.90,ENE,68,0.0,0.0,70,0.00,,CLR,0.00,VWS V14.01,2013-06-03 13:12:00,
2013-06-03 09:22:00,55.6,44.0,29.90,ENE,61,0.0,0.0,65,0.00,,CLR,0.00,VWS V14.01,2013-06-03 13:22:00,
2013-06-03 09:27:00,55.7,42.9,29.90,ENE,59,0.0,0.0,62,0.00,,CLR,0.00,VWS V14.01,2013-06-03 13:27:00,
2013-06-03 09:32:00,56.2,42.5,29.91,NE,49,0.0,0.0,60,0.00,,CLR,0.00,VWS V14.01,2013-06-03 13:32:00,
2013-06-03 09:37:00,55.1,42.3,29.91,NE,54,0.0,0.0,62,0.00,,CLR,0.00,VWS V14.01,2013-06-03 13:37:00,
2013-06-03 09:47:00,55.7,42.0,29.91,ENE,61,0.0,0.0,60,0.00,,CLR,0.00,VWS V14.01,2013-06-03 13:47:00,
2013-06-03 09:52:00,55.1,42.3,29.91,NE,51,0.0,0.0,62,0.00,,CLR,0.00,VWS V14.01,2013-06-03 13:52:00,
2013-06-03 09:57:00,55.1,43.2,29.91,NE,55,0.0,0.0,64,0.00,,CLR,0.00,VWS V14.01,2013-06-03 13:57:00,
2013-06-03 10:02:00,55.1,42.8,29.92,NE,54,0.0,0.0,63,0.00,,CLR,0.00,VWS V14.01,2013-06-03 14:02:00,
2013-06-03 10:12:00,55.3,42.5,29.92,NE,48,0.0,0.0,62,0.00,,CLR,0.00,VWS V14.01,2013-06-03 14:12:00,
2013-06-03 10:17:00,55.7,42.9,29.92,ENE,59,0.0,0.0,62,0.00,,CLR,0.00,VWS V14.01,2013-06-03 14:17:00,
2013-06-03 10:22:00,55.9,43.9,29.92,NNE,32,0.0,0.0,64,0.00,,CLR,0.00,VWS V14.01,2013-06-03 14:22:00,
2013-06-03 10:32:00,55.9,43.1,29.92,NE,48,0.0,0.0,62,0.00,,CLR,0.00,VWS V14.01,2013-06-03 14:32:00,
2013-06-03 10:42:00,55.7,43.3,29.92,NE,34,0.0,0.0,63,0.00,,CLR,0.00,VWS V14.01,2013-06-03 14:42:00,
2013-06-03 10:47:00,57.8,44.5,29.92,NE,42,0.0,0.0,61,0.00,,CLR,0.00,VWS V14.01,2013-06-03 14:47:00,
2013-06-03 10:52:00,58.3,43.6,29.92,NE,41,0.0,0.0,58,0.00,,CLR,0.00,VWS V14.01,2013-06-03 14:52:00,
2013-06-03 10:57:00,56.9,43.2,29.92,NNE,16,0.0,0.0,60,0.00,,CLR,0.00,VWS V14.01,2013-06-03 14:57:00,
2013-06-03 11:02:00,56.7,43.4,29.92,NNE,25,0.0,0.0,61,0.00,,CLR,0.00,VWS V14.01,2013-06-03 15:02:00,
2013-06-03 11:12:00,56.7,43.4,29.92,NNE,25,0.0,0.0,61,0.00,,CLR,0.00,VWS V14.01,2013-06-03 15:12:00,
2013-06-03 11:22:00,59.3,44.1,29.92,East,89,0.0,0.0,57,0.00,,CLR,0.00,VWS V14.01,2013-06-03 15:22:00,
2013-06-03 11:27:00,60.4,43.7,29.92,ENE,61,0.0,0.0,54,0.00,,CLR,0.00,VWS V14.01,2013-06-03 15:27:00,
2013-06-03 11:32:00,60.2,43.5,29.93,ENE,69,0.0,0.0,54,0.00,,CLR,0.00,VWS V14.01,2013-06-03 15:32:00,
2013-06-03 11:37:00,61.5,42.7,29.93,ENE,76,0.0,0.0,50,0.00,,CLR,0.00,VWS V14.01,2013-06-03 15:37:00,
2013-06-03 11:47:00,58.6,41.5,29.93,NNE,23,0.0,0.0,53,0.00,,CLR,0.00,VWS V14.01,2013-06-03 15:47:00,
2013-06-03 11:52:00,59.2,42.6,29.93,ENE,65,0.0,0.0,54,0.00,,CLR,0.00,VWS V14.01,2013-06-03 15:52:00,
2013-06-03 11:57:00,60.5,41.8,29.93,NE,45,0.0,0.0,50,0.00,,CLR,0.00,VWS V14.01,2013-06-03 15:57:00,
2013-06-03 12:02:00,61.3,42.0,29.93,ENE,66,0.0,0.0,49,0.00,,CLR,0.00,VWS V14.01,2013-06-03 16:02:00,
2013-06-03 12:12:00,59.9,40.2,29.93,NE,44,0.0,0.0,48,0.00,,CLR,0.00,VWS V14.01,2013-06-03 16:12:00,
2013-06-03 12:17:00,59.6,39.9,29.93,NE,41,0.0,0.0,48,0.00,,CLR,0.00,VWS V14.01,2013-06-03 16:17:00,
2013-06-03 12:27:00,61.8,40.8,29.93,ENE,58,0.0,0.0,46,0.00,,CLR,0.00,VWS V14.01,2013-06-03 16:27:00,
2013-06-03 12:37:00,62.3,41.8,29.93,NE,56,0.0,0.0,47,0.00,,CLR,0.00,VWS V14.01,2013-06-03 16:37:00,
2013-06-03 12:42:00,63.2,41.0,29.93,ENE,69,0.0,0.0,44,0.00,,CLR,0.00,VWS V14.01,2013-06-03 16:42:00,
2013-06-03 12:47:00,61.3,40.9,29.93,NE,44,0.0,0.0,47,0.00,,CLR,0.00,VWS V14.01,2013-06-03 16:47:00,
2013-06-03 12:52:00,60.5,40.2,29.93,NE,56,0.0,0.0,47,0.00,,CLR,0.00,VWS V14.01,2013-06-03 16:52:00,
2013-06-03 12:57:00,61.2,39.7,29.93,ENE,59,0.0,0.0,45,0.00,,CLR,0.00,VWS V14.01,2013-06-03 16:57:00,
2013-06-03 13:02:00,62.9,41.3,29.92,ENE,66,0.0,0.0,45,0.00,,CLR,0.00,VWS V14.01,2013-06-03 17:02:00,
2013-06-03 13:12:00,63.1,40.3,29.92,NE,41,0.0,0.0,43,0.00,,CLR,0.00,VWS V14.01,2013-06-03 17:12:00,
2013-06-03 13:17:00,63.1,41.4,29.91,ENE,64,0.0,0.0,45,0.00,,CLR,0.00,VWS V14.01,2013-06-03 17:17:00,
2013-06-03 13:27:00,62.4,40.2,29.91,NE,54,0.0,0.0,44,0.00,,CLR,0.00,VWS V14.01,2013-06-03 17:27:00,
2013-06-03 13:37:00,62.9,39.5,29.91,NNE,17,0.0,0.0,42,0.00,,CLR,0.00,VWS V14.01,2013-06-03 17:37:00,
2013-06-03 13:42:00,63.2,39.1,29.91,NE,52,0.0,0.0,41,0.00,,FEW043,0.00,VWS V14.01,2013-06-03 17:42:00,
2013-06-03 13:52:00,64.7,38.5,29.90,ENE,58,0.0,0.0,38,0.00,,FEW043,0.00,VWS V14.01,2013-06-03 17:52:00,
2013-06-03 13:57:00,65.8,40.8,29.90,ENE,75,0.0,0.0,40,0.00,,FEW043,0.00,VWS V14.01,2013-06-03 17:57:00,
2013-06-03 14:07:00,65.0,38.1,29.89,NE,52,0.0,0.0,37,0.00,,FEW043,0.00,VWS V14.01,2013-06-03 18:07:00,
2013-06-03 14:17:00,63.9,37.1,29.88,NE,51,0.0,0.0,37,0.00,,FEW043,0.00,VWS V14.01,2013-06-03 18:17:00,
2013-06-03 14:22:00,64.2,38.8,29.88,ENE,69,0.0,0.0,39,0.00,,FEW043,0.00,VWS V14.01,2013-06-03 18:22:00,
2013-06-03 14:32:00,62.9,38.2,29.88,NE,37,0.0,0.0,40,0.00,,FEW043,0.00,VWS V14.01,2013-06-03 18:32:00,
2013-06-03 14:37:00,63.7,38.3,29.88,ENE,68,0.0,0.0,39,0.00,,FEW043,0.00,VWS V14.01,2013-06-03 18:37:00,
2013-06-03 14:42:00,65.3,38.4,29.88,ENE,58,0.0,0.0,37,0.00,,CLR,0.00,VWS V14.01,2013-06-03 18:42:00,
2013-06-03 14:52:00,64.5,38.3,29.87,NE,55,0.0,0.0,38,0.00,,CLR,0.00,VWS V14.01,2013-06-03 18:52:00,
2013-06-03 15:02:00,64.0,40.5,29.87,NE,35,0.0,0.0,42,0.00,,CLR,0.00,VWS V14.01,2013-06-03 19:02:00,
2013-06-03 15:12:00,63.2,39.1,29.87,NE,41,0.0,0.0,41,0.00,,CLR,0.00,VWS V14.01,2013-06-03 19:12:00,
2013-06-03 15:17:00,63.7,41.4,29.87,NE,35,0.0,0.0,44,0.00,,CLR,0.00,VWS V14.01,2013-06-03 19:17:00,
2013-06-03 15:27:00,65.6,43.1,29.87,East,79,0.0,0.0,44,0.00,,CLR,0.00,VWS V14.01,2013-06-03 19:27:00,
2013-06-03 15:32:00,66.6,40.9,29.87,ENE,72,0.0,0.0,39,0.00,,CLR,0.00,VWS V14.01,2013-06-03 19:32:00,
2013-06-03 15:37:00,66.4,40.0,29.87,ENE,69,0.0,0.0,38,0.00,,CLR,0.00,VWS V14.01,2013-06-03 19:37:00,
2013-06-03 15:47:00,67.3,40.2,29.86,SE,127,0.0,0.0,37,0.00,,CLR,0.00,VWS V14.01,2013-06-03 19:47:00,
2013-06-03 15:52:00,67.8,39.2,29.86,ENE,71,0.0,0.0,35,0.00,,CLR,0.00,VWS V14.01,2013-06-03 19:52:00,
2013-06-03 15:57:00,67.9,39.3,29.86,ENE,58,0.0,0.0,35,0.00,,CLR,0.00,VWS V14.01,2013-06-03 19:57:00,
2013-06-03 16:02:00,66.8,40.4,29.86,NE,49,0.0,0.0,38,0.00,,CLR,0.00,VWS V14.01,2013-06-03 20:02:00,
2013-06-03 16:12:00,66.9,39.8,29.86,ENE,61,0.0,0.0,37,0.00,,CLR,0.00,VWS V14.01,2013-06-03 20:12:00,
2013-06-03 16:22:00,68.3,39.6,29.86,ENE,65,0.0,0.0,35,0.00,,CLR,0.00,VWS V14.01,2013-06-03 20:22:00,
2013-06-03 16:32:00,65.8,40.8,29.87,NNE,28,0.0,0.0,40,0.00,,CLR,0.00,VWS V14.01,2013-06-03 20:32:00,
2013-06-03 16:42:00,65.3,39.1,29.87,ENE,59,0.0,0.0,38,0.00,,CLR,0.00,VWS V14.01,2013-06-03 20:42:00,
2013-06-03 16:47:00,66.4,39.4,29.87,ENE,62,0.0,0.0,37,0.00,,CLR,0.00,VWS V14.01,2013-06-03 20:47:00,
2013-06-03 16:52:00,65.8,40.2,29.87,North,1,0.0,0.0,39,0.00,,CLR,0.00,VWS V14.01,2013-06-03 20:52:00,
2013-06-03 17:02:00,64.7,41.1,29.87,North,0,0.0,0.0,42,0.00,,CLR,0.00,VWS V14.01,2013-06-03 21:02:00,
2013-06-03 17:07:00,65.5,41.8,29.87,ENE,58,0.0,0.0,42,0.00,,CLR,0.00,VWS V14.01,2013-06-03 21:07:00,
2013-06-03 17:17:00,65.0,40.1,29.87,NNE,13,0.0,0.0,40,0.00,,CLR,0.00,VWS V14.01,2013-06-03 21:17:00,
2013-06-03 17:22:00,64.7,38.5,29.87,ENE,72,0.0,0.0,38,0.00,,CLR,0.00,VWS V14.01,2013-06-03 21:22:00,
2013-06-03 17:27:00,64.7,40.5,29.87,North,357,0.0,0.0,41,0.00,,CLR,0.00,VWS V14.01,2013-06-03 21:27:00,
2013-06-03 17:32:00,64.3,39.5,29.87,NNE,21,0.0,0.0,40,0.00,,CLR,0.00,VWS V14.01,2013-06-03 21:32:00,
2013-06-03 17:42:00,65.0,40.8,29.87,NE,48,0.0,0.0,41,0.00,,BKN043,0.00,VWS V14.01,2013-06-03 21:42:00,
2013-06-03 17:47:00,65.5,41.8,29.86,North,359,0.0,0.0,42,0.00,,BKN043,0.00,VWS V14.01,2013-06-03 21:47:00,
2013-06-03 17:52:00,65.0,41.4,29.86,ENE,58,0.0,0.0,42,0.00,,BKN043,0.00,VWS V14.01,2013-06-03 21:52:00,
2013-06-03 17:57:00,66.0,41.0,29.86,ENE,58,0.0,0.0,40,0.00,,BKN043,0.00,VWS V14.01,2013-06-03 21:57:00,
2013-06-03 18:02:00,66.3,41.3,29.86,NE,51,0.0,0.0,40,0.00,,BKN043,0.00,VWS V14.01,2013-06-03 22:02:00,
2013-06-03 18:12:00,65.3,41.0,29.86,NNE,32,0.0,0.0,41,0.00,,BKN043,0.00,VWS V14.01,2013-06-03 22:12:00,
2013-06-03 18:17:00,65.5,40.6,29.85,NNE,17,0.0,0.0,40,0.00,,BKN043,0.00,VWS V14.01,2013-06-03 22:17:00,
2013-06-03 18:22:00,65.6,41.9,29.85,NE,35,0.0,0.0,42,0.00,,BKN043,0.00,VWS V14.01,2013-06-03 22:22:00,
2013-06-03 18:27:00,66.1,41.1,29.85,NE,38,0.0,0.0,40,0.00,,BKN043,0.00,VWS V14.01,2013-06-03 22:27:00,
2013-06-03 18:32:00,65.8,40.8,29.85,NNE,27,0.0,0.0,40,0.00,,BKN043,0.00,VWS V14.01,2013-06-03 22:32:00,
2013-06-03 18:37:00,65.6,40.0,29.85,NE,40,0.0,0.0,39,0.00,,BKN043,0.00,VWS V14.01,2013-06-03 22:37:00,
2013-06-03 18:47:00,65.8,39.5,29.85,NE,34,0.0,0.0,38,0.00,,FEW045,0.00,VWS V14.01,2013-06-03 22:47:00,
2013-06-03 18:52:00,65.3,39.1,29.85,NE,48,0.0,0.0,38,0.00,,FEW045,0.00,VWS V14.01,2013-06-03 22:52:00,
2013-06-03 18:57:00,65.5,40.6,29.85,NNE,32,0.0,0.0,40,0.00,,FEW045,0.00,VWS V14.01,2013-06-03 22:57:00,
2013-06-03 19:02:00,65.3,39.7,29.86,NE,38,0.0,0.0,39,0.00,,FEW045,0.00,VWS V14.01,2013-06-03 23:02:00,
2013-06-03 19:12:00,65.6,40.0,29.86,NE,44,0.0,0.0,39,0.00,,FEW045,0.00,VWS V14.01,2013-06-03 23:12:00,
2013-06-03 19:17:00,65.6,40.7,29.85,NNE,31,0.0,0.0,40,0.00,,FEW045,0.00,VWS V14.01,2013-06-03 23:17:00,
2013-06-03 19:27:00,65.6,40.0,29.85,NE,54,0.0,0.0,39,0.00,,FEW045,0.00,VWS V14.01,2013-06-03 23:27:00,
2013-06-03 19:37:00,65.8,40.2,29.86,ENE,68,0.0,0.0,39,0.00,,FEW045,0.00,VWS V14.01,2013-06-03 23:37:00,
2013-06-03 19:42:00,65.8,40.8,29.86,ENE,66,0.0,0.0,40,0.00,,CLR,0.00,VWS V14.01,2013-06-03 23:42:00,
2013-06-03 19:52:00,66.1,40.5,29.87,ENE,65,0.0,0.0,39,0.00,,CLR,0.00,VWS V14.01,2013-06-03 23:52:00,
2013-06-03 19:57:00,66.1,39.8,29.87,ENE,65,0.0,0.0,38,0.00,,CLR,0.00,VWS V14.01,2013-06-03 23:57:00,
2013-06-03 20:07:00,65.3,41.0,29.87,NE,37,0.0,0.0,41,0.00,,CLR,0.00,VWS V14.01,2013-06-04 00:07:00,
2013-06-03 20:12:00,65.2,40.9,29.87,NE,37,0.0,0.0,41,0.00,,CLR,0.00,VWS V14.01,2013-06-04 00:12:00,
2013-06-03 20:22:00,65.2,40.9,29.87,NE,40,0.0,0.0,41,0.00,,CLR,0.00,VWS V14.01,2013-06-04 00:22:00,
2013-06-03 20:27:00,65.3,42.2,29.87,NE,40,0.0,0.0,43,0.00,,CLR,0.00,VWS V14.01,2013-06-04 00:27:00,
2013-06-03 20:32:00,65.3,42.2,29.87,NE,41,0.0,0.0,43,0.00,,CLR,0.00,VWS V14.01,2013-06-04 00:32:00,
2013-06-03 20:37:00,65.0,40.8,29.87,NE,41,0.0,0.0,41,0.00,,CLR,0.00,VWS V14.01,2013-06-04 00:37:00,
2013-06-03 20:47:00,64.8,41.8,29.87,NE,41,0.0,0.0,43,0.00,,CLR,0.00,VWS V14.01,2013-06-04 00:47:00,
2013-06-03 20:52:00,64.8,41.8,29.87,NE,41,0.0,0.0,43,0.00,,CLR,0.00,VWS V14.01,2013-06-04 00:52:00,
2013-06-03 20:57:00,65.0,43.2,29.87,NE,41,0.0,0.0,45,0.00,,CLR,0.00,VWS V14.01,2013-06-04 00:57:00,
2013-06-03 21:02:00,64.7,44.0,29.87,NE,41,0.0,0.0,47,0.00,,CLR,0.00,VWS V14.01,2013-06-04 01:02:00,
2013-06-03 21:12:00,63.5,44.0,29.87,NE,41,0.0,0.0,49,0.00,,CLR,0.00,VWS V14.01,2013-06-04 01:12:00,
2013-06-03 21:17:00,62.6,43.2,29.87,NE,41,0.0,0.0,49,0.00,,CLR,0.00,VWS V14.01,2013-06-04 01:17:00,
2013-06-03 21:22:00,61.3,43.0,29.87,NE,41,0.0,0.0,51,0.00,,CLR,0.00,VWS V14.01,2013-06-04 01:22:00,
2013-06-03 21:27:00,60.7,43.0,29.87,NE,41,0.0,0.0,52,0.00,,CLR,0.00,VWS V14.01,2013-06-04 01:27:00,
2013-06-03 21:32:00,60.5,42.8,29.88,NE,41,0.0,0.0,52,0.00,,CLR,0.00,VWS V14.01,2013-06-04 01:32:00,
2013-06-03 21:42:00,59.9,45.1,29.88,NE,40,0.0,0.0,58,0.00,,CLR,0.00,VWS V14.01,2013-06-04 01:42:00,
2013-06-03 21:47:00,58.9,45.1,29.88,NE,38,0.0,0.0,60,0.00,,CLR,0.00,VWS V14.01,2013-06-04 01:47:00,
2013-06-03 21:52:00,59.3,45.9,29.88,North,0,0.0,0.0,61,0.00,,CLR,0.00,VWS V14.01,2013-06-04 01:52:00,
2013-06-03 21:57:00,59.8,46.8,29.88,North,357,0.0,0.0,62,0.00,,CLR,0.00,VWS V14.01,2013-06-04 01:57:00,
2013-06-03 22:02:00,59.9,46.9,29.90,North,354,0.0,0.0,62,0.00,,CLR,0.00,VWS V14.01,2013-06-04 02:02:00,
2013-06-03 22:07:00,59.8,47.2,29.90,North,354,0.0,0.0,63,0.00,,CLR,0.00,VWS V14.01,2013-06-04 02:07:00,
2013-06-03 22:17:00,59.2,47.5,29.90,North,354,0.0,0.0,65,0.00,,CLR,0.00,VWS V14.01,2013-06-04 02:17:00,
2013-06-03 22:22:00,58.9,47.6,29.90,North,354,0.0,0.0,66,0.00,,CLR,0.00,VWS V14.01,2013-06-04 02:22:00,
2013-06-03 22:32:00,58.6,47.7,29.91,North,354,0.0,0.0,67,0.00,,CLR,0.00,VWS V14.01,2013-06-04 02:32:00,
2013-06-03 22:37:00,58.4,47.5,29.91,North,354,0.0,0.0,67,0.00,,CLR,0.00,VWS V14.01,2013-06-04 02:37:00,
2013-06-03 22:47:00,58.0,47.9,29.91,North,354,0.0,0.0,69,0.00,,CLR,0.00,VWS V14.01,2013-06-04 02:47:00,
2013-06-03 22:57:00,57.6,47.5,29.91,North,354,0.0,0.0,69,0.00,,CLR,0.00,VWS V14.01,2013-06-04 02:57:00,
2013-06-03 23:02:00,57.5,47.4,29.92,North,354,0.0,0.0,69,0.00,,CLR,0.00,VWS V14.01,2013-06-04 03:02:00,
2013-06-03 23:07:00,57.2,47.5,29.92,North,354,0.0,0.0,70,0.00,,CLR,0.00,VWS V14.01,2013-06-04 03:07:00,
2013-06-03 23:12:00,56.9,47.2,29.92,North,354,0.0,0.0,70,0.00,,CLR,0.00,VWS V14.01,2013-06-04 03:12:00,
2013-06-03 23:17:00,56.7,47.0,29.92,North,354,0.0,0.0,70,0.00,,CLR,0.00,VWS V14.01,2013-06-04 03:17:00,
2013-06-03 23:22:00,56.7,46.7,29.92,North,354,0.0,0.0,69,0.00,,CLR,0.00,VWS V14.01,2013-06-04 03:22:00,
2013-06-03 23:27:00,56.7,46.7,29.92,North,354,0.0,0.0,69,0.00,,CLR,0.00,VWS V14.01,2013-06-04 03:27:00,
2013-06-03 23:32:00,56.6,46.6,29.92,North,354,0.0,0.0,69,0.00,,CLR,0.00,VWS V14.01,2013-06-04 03:32:00,
2013-06-03 23:42:00,56.3,46.7,29.92,North,354,0.0,0.0,70,0.00,,CLR,0.00,VWS V14.01,2013-06-04 03:42:00,
2013-06-03 23:47:00,56.3,46.7,29.92,North,354,0.0,0.0,70,0.00,,CLR,0.00,VWS V14.01,2013-06-04 03:47:00,
2013-06-03 23:52:00,56.2,47.3,29.92,North,354,0.0,0.0,72,0.00,,CLR,0.00,VWS V14.01,2013-06-04 03:52:00,
2013-06-03 23:57:00,55.9,47.4,29.92,North,354,0.0,0.0,73,0.00,,CLR,0.00,VWS V14.01,2013-06-04 03:57:00,